RH
42 21 17 17 19 15 13 9 8 8 8 10 11 13 14 13 16 32 43 46 45 58 75 72 89 88 90 90 91 91 90 88 86 88 89 88 87 86 85 83 82 81 80 77 75 76 76 79 83
16 12 15 16 22 16 11 8 9 8 9 10 11 12 12 17 23 22 43 48 49 46 60 68 86 85 87 89 87 84 85 86 86 87 88 87 86 86 85 84 83 81 80 76 77 78 77 80 85
25 16 17 18 17 16 12 8 8 8 9 10 10 9 14 22 28 31 45 49 52 53 58 74 91 90 88 86 87 89 90 88 87 86 87 86 86 85 85 85 83 81 80 77 76 76 80 82 82
16 13 13 16 14 10 9 8 8 8 8 10 12 14 19 22 24 33 36 41 50 59 60 91 92 88 84 84 85 88 91 97 88 86 86 86 85 85 86 84 81 80 80 77 77 78 80 82 81
12 12 16 16 13 9 7 8 8 8 8 9 12 15 17 33 30 35 41 43 50 63 66 80 91 90 83 83 83 81 86 94 90 85 87 86 85 85 85 83 80 80 81 79 78 79 81 80 78
14 13 17 14 10 7 8 8 8 8 8 9 11 14 20 32 32 45 50 52 61 65 72 74 85 90 88 84 83 80 85 92 93 85 86 86 85 85 84 82 81 81 84 83 82 82 81 80 82
16 15 15 13 11 9 7 8 10 11 12 11 12 16 19 35 38 41 47 60 69 76 81 85 80 79 92 89 89 87 89 92 95 86 87 86 86 84 83 83 84 86 84 84 84 84 83 82 79
12 13 15 12 11 10 7 10 10 10 12 11 10 14 21 42 37 44 52 67 67 82 86 85 84 83 80 87 90 92 92 92 94 85 88 87 85 85 86 86 86 87 86 85 84 86 84 82 78
10 15 15 12 10 8 7 9 9 8 11 10 10 14 21 37 38 44 56 74 73 78 82 90 89 84 84 87 92 90 90 91 98 85 88 89 81 82 84 83 87 87 87 87 86 86 86 82 75
12 16 13 8 8 8 7 7 9 10 10 11 12 13 34 36 37 42 52 63 70 73 85 86 88 84 84 89 90 91 92 96 98 97 88 87 88 86 81 88 88 88 88 88 88 86 82 68 65
12 14 11 9 8 7 8 7 7 9 12 11 13 18 35 37 36 36 35 55 60 65 78 82 85 85 87 91 93 91 95 95 97 98 96 93 94 92 91 88 84 88 86 80 82 78 59 57 58
12 9 10 9 8 8 8 8 8 8 13 11 12 15 19 21 32 32 34 41 56 69 72 72 83 86 87 92 94 93 94 96 98 98 93 94 97 95 96 91 79 72 68 72 74 66 62 57 54
11 9 8 8 8 8 8 8 9 12 9 9 8 13 22 22 26 28 30 38 61 66 76 80 82 84 85 88 95 97 98 97 96 96 93 92 94 91 84 88 62 58 61 61 61 60 54 58 54
10 9 8 8 9 9 9 9 8 10 8 8 9 16 21 22 27 27 34 37 58 66 80 84 87 87 86 91 94 99 98 98 95 96 94 92 94 92 80 82 57 60 56 55 56 60 61 59 57
12 14 11 10 9 10 9 10 10 10 8 8 9 13 20 22 26 29 32 37 54 64 76 85 89 89 89 87 92 94 98 98 96 95 96 94 93 87 78 75 61 61 55 55 64 60 60 60 53
15 16 19 12 10 10 10 16 10 8 8 9 11 13 22 23 26 28 30 35 46 60 76 82 89 91 93 91 94 94 95 96 97 96 96 95 90 82 76 72 65 64 60 56 61 61 60 61 60
22 24 21 16 11 11 11 13 9 9 11 14 15 17 23 26 28 30 31 37 37 53 70 79 92 96 94 93 97 94 94 96 95 95 94 89 86 74 73 81 73 79 58 66 54 63 61 62 61
26 23 20 19 12 11 12 12 11 11 13 16 14 18 22 27 28 30 32 37 36 53 72 74 93 97 98 98 97 96 96 96 94 94 90 85 80 75 78 80 84 83 80 70 66 62 60 61 58
21 22 22 16 12 13 15 13 11 11 11 15 17 17 20 26 26 31 37 42 45 58 70 79 94 97 97 98 98 98 97 94 96 92 90 87 73 70 72 68 75 74 69 64 66 68 64 66 64
18 21 23 19 14 13 13 13 11 10 11 11 12 16 17 22 25 32 40 45 51 59 68 82 86 91 93 91 88 89 91 89 85 88 79 76 72 64 65 68 67 66 64 67 71 68 72 71 71
21 26 26 23 18 15 15 16 15 12 10 10 10 10 13 19 26 33 42 50 54 60 65 69 76 85 89 85 84 87 91 92 91 94 89 85 80 63 60 69 67 68 68 71 74 75 74 82 76
41 25 24 22 25 31 17 24 16 13 13 12 11 13 14 14 22 30 40 49 56 57 64 65 77 76 84 86 88 90 90 95 88 86 84 83 84 79 61 69 74 78 78 78 75 75 79 88 89
51 33 33 36 26 28 22 24 19 14 14 12 12 13 16 16 19 27 37 43 48 54 64 64 73 73 79 84 84 88 88 82 80 88 91 88 88 87 80 67 80 80 82 85 82 84 88 91 91
38 36 40 36 29 38 26 26 25 18 16 12 11 13 14 16 18 23 33 39 44 52 61 66 71 75 77 82 86 82 83 84 82 90 94 95 91 88 86 76 80 86 84 88 87 81 89 93 85
39 39 75 66 49 47 23 26 24 17 14 13 15 17 15 16 20 24 32 38 44 54 61 62 70 70 77 84 86 86 83 81 88 83 84 85 89 89 82 82 81 81 80 81 88 91 90 88 87
41 38 81 70 60 43 23 29 21 15 13 12 12 17 16 17 24 24 29 38 42 52 59 60 64 66 73 82 82 82 79 80 80 84 80 75 75 80 75 80 79 78 76 76 80 82 87 86 88
57 53 45 66 61 84 42 22 16 14 14 13 13 15 16 17 20 22 24 37 41 49 58 61 56 58 62 72 74 77 76 76 80 80 79 79 73 65 69 74 80 78 73 72 73 78 80 82 83
46 34 51 60 74 84 46 39 25 21 20 16 16 18 18 17 19 23 23 36 39 46 54 62 56 54 54 71 73 69 69 74 72 72 76 77 78 74 65 69 78 80 74 71 72 70 71 78 78
43 46 58 58 59 68 63 44 29 28 21 24 24 22 23 23 22 23 25 30 37 42 48 57 56 49 53 61 70 72 73 73 71 72 74 72 73 75 74 72 75 77 76 72 71 70 69 74 74
34 39 40 72 80 54 64 52 28 27 24 24 25 20 21 22 21 21 24 28 33 40 45 52 55 52 49 56 62 68 70 70 72 74 73 74 74 72 70 70 76 76 73 73 74 72 64 70 72
Wind_Speed
6 10 10 10 7 9 16 9 10 6 1 7 6 4 9 8 9 4 12 7 4 8 11 10 10 9 9 13 13 13 13 15 16 17 19 20 17 17 17 18 18 20 23 22 22 22 22 22 20
10 15 9 6 10 13 11 8 4 3 10 8 5 10 13 5 12 5 7 9 6 1 9 12 11 9 12 11 5 12 16 16 16 17 20 21 20 19 18 18 19 20 23 22 23 22 23 21 18
10 14 7 8 13 14 15 10 4 5 5 3 6 11 6 3 11 4 8 5 4 3 6 11 14 19 21 18 11 6 9 17 18 18 19 21 21 21 19 19 19 21 22 24 23 22 22 17 15
7 8 7 8 17 21 16 6 6 3 5 8 7 8 4 8 4 7 4 2 3 4 4 14 13 15 20 23 19 8 5 17 19 19 20 20 21 21 21 20 20 21 21 24 22 20 19 14 12
10 7 12 17 21 23 6 3 6 8 5 3 4 7 9 7 9 10 4 2 2 7 4 11 9 11 12 12 10 14 15 16 21 23 21 21 21 23 21 20 19 20 21 22 21 19 18 14 12
9 11 14 15 21 15 6 4 2 7 5 6 10 13 0 11 5 10 4 0 2 3 4 7 8 6 8 9 11 10 16 17 22 25 23 23 21 22 21 21 20 20 22 21 21 16 16 13 11
16 13 17 21 19 21 8 10 4 6 8 9 9 11 3 12 9 6 5 4 4 2 4 5 8 10 9 8 15 16 13 14 24 25 23 23 21 21 21 22 22 21 20 21 21 15 14 13 11
13 14 22 18 16 20 7 9 5 6 9 4 8 6 4 10 8 6 6 5 2 4 4 4 4 6 7 7 13 18 12 8 23 26 24 22 21 20 19 23 24 22 20 19 19 14 14 13 10
20 14 15 21 20 15 8 8 7 3 8 9 9 9 5 10 7 5 7 4 3 3 4 4 5 6 5 6 9 15 17 8 6 21 24 17 12 15 17 16 23 22 19 19 18 15 13 12 8
18 15 21 22 21 10 12 8 3 7 10 14 14 10 11 8 5 6 8 6 4 5 7 5 6 2 5 5 6 7 8 12 11 6 9 11 11 12 13 14 20 21 20 20 17 15 13 9 3
21 20 21 24 21 10 10 19 7 14 12 10 6 5 12 7 5 6 7 7 7 4 5 8 6 2 3 4 5 2 3 5 8 9 11 10 8 7 9 8 8 9 16 9 10 10 6 6 5
23 24 23 23 20 20 10 15 15 14 13 11 10 2 6 5 7 8 6 8 9 8 4 4 8 6 5 4 1 4 5 7 8 7 12 10 6 8 11 7 9 8 7 9 7 6 6 7 6
24 23 21 23 22 17 18 14 17 17 16 11 16 8 7 9 9 7 4 4 11 7 5 4 7 6 6 5 2 3 4 7 10 13 9 10 8 8 9 8 8 8 9 8 8 6 8 7 6
23 22 23 24 20 20 19 17 17 18 17 18 15 9 10 12 9 7 7 6 11 6 6 5 6 8 7 6 6 5 6 6 10 10 10 11 7 7 10 8 8 6 9 8 7 6 5 5 5
19 22 23 21 18 19 19 21 22 18 20 19 15 12 10 12 10 7 9 7 12 8 8 6 6 7 8 10 8 6 6 7 10 10 10 10 6 8 12 9 9 7 8 10 5 6 4 5 5
20 18 19 22 23 23 19 19 20 20 17 15 10 12 11 12 10 9 7 6 13 11 8 9 6 6 8 8 6 6 6 7 9 8 9 7 4 7 11 9 8 7 8 8 6 5 5 5 5
16 18 24 22 23 22 22 22 21 13 7 10 13 10 10 10 11 9 10 8 8 11 9 8 9 7 8 9 8 8 8 7 7 8 8 7 6 5 7 5 6 7 9 6 8 4 5 5 4
20 21 22 22 22 20 16 15 15 14 14 13 11 12 13 12 12 11 10 10 9 13 12 10 8 9 7 8 8 7 7 6 8 8 10 11 5 5 6 7 7 4 5 5 5 4 4 4 4
22 20 25 23 20 20 18 15 15 17 16 13 14 11 13 15 13 13 10 10 9 11 11 11 11 11 8 7 8 8 9 9 7 8 10 11 10 9 8 5 5 5 5 6 6 4 5 3 4
26 25 26 26 21 6 13 13 15 16 14 14 13 14 15 15 14 15 13 10 9 11 12 13 11 13 9 7 7 7 9 8 10 8 11 10 8 10 7 6 6 6 5 6 6 6 3 3 4
25 21 21 26 22 18 16 16 17 18 17 15 16 15 10 15 17 17 16 12 11 12 12 12 12 14 11 11 9 8 7 7 8 7 7 5 5 10 11 9 9 8 6 7 7 6 7 4 3
25 22 26 22 17 14 17 14 17 16 21 23 17 12 13 8 16 18 18 16 14 12 13 13 13 11 13 13 10 13 10 10 9 10 8 7 5 5 6 7 7 7 5 6 7 6 5 5 5
26 21 18 22 20 18 21 14 13 10 13 14 15 16 14 13 11 17 19 17 16 14 13 11 15 14 13 14 13 11 11 10 8 8 11 11 8 5 5 8 8 8 4 5 9 7 6 5 4
25 23 16 25 17 17 18 17 13 14 15 10 7 10 12 15 11 14 17 16 15 14 13 14 14 15 14 13 13 14 14 13 12 11 10 9 9 8 6 8 9 7 7 6 7 13 10 6 5
25 13 4 7 14 12 16 16 14 13 18 4 6 2 6 11 14 13 16 16 16 17 16 14 17 16 16 15 14 15 14 15 15 16 13 13 9 9 11 9 11 10 10 8 5 5 6 6 5
17 16 6 7 7 13 19 12 16 14 16 3 1 0 5 10 10 11 15 17 16 17 18 17 18 17 18 18 15 15 16 11 12 15 12 12 13 13 15 13 11 12 12 10 9 5 5 6 6
12 16 22 18 9 7 8 18 3 10 9 6 6 6 7 10 10 11 12 17 17 17 19 18 17 18 19 18 16 16 15 14 14 16 15 13 15 14 16 16 14 13 14 14 14 9 8 7 8
23 12 11 3 5 7 5 6 7 10 11 8 7 7 6 7 4 4 11 15 16 16 16 17 16 17 15 19 17 15 16 15 12 14 18 17 17 18 19 17 16 14 14 15 15 12 11 10 10
15 16 5 4 9 4 1 7 1 2 7 5 8 13 10 8 6 6 2 9 15 14 16 17 17 17 16 17 18 17 16 17 16 15 15 16 16 17 18 19 19 18 17 16 14 16 15 16 14
19 18 19 7 5 7 6 4 9 11 4 7 6 7 11 13 13 5 5 3 12 13 15 16 15 16 14 13 16 17 17 18 18 18 18 17 17 17 19 19 20 21 20 18 18 18 17 18 17
Wind_Direction
219 233 236 254 252 234 264 271 59 10 19 73 33 337 330 307 301 20 96 75 53 104 125 127 114 119 151 151 156 155 156 150 143 138 131 125 126 125 125 127 129 124 120 121 120 113 116 109 105
223 232 241 276 248 280 279 85 65 109 62 62 256 231 249 316 43 52 82 50 37 232 130 142 131 126 145 147 67 178 168 157 153 151 141 136 136 134 133 128 126 124 123 123 117 116 115 114 111
262 258 265 234 248 247 279 48 44 66 88 262 298 289 282 59 74 60 70 50 60 102 145 124 118 106 107 107 82 81 17 170 159 158 147 144 140 137 131 125 129 130 124 123 120 117 115 113 117
226 223 242 252 264 282 300 2 88 276 241 166 255 297 144 68 105 90 106 78 127 121 188 129 138 138 143 143 148 148 162 337 165 165 152 149 142 136 132 130 134 131 124 121 120 121 119 113 114
237 269 249 257 265 262 226 114 316 303 270 295 20 318 316 107 114 108 106 108 244 146 160 146 157 150 149 152 160 163 165 220 245 170 153 148 142 135 134 132 135 126 121 122 126 125 116 121 125
225 228 260 267 267 309 90 111 324 283 277 266 238 235 339 124 146 117 120 208 71 320 162 157 152 196 177 181 198 184 164 179 255 164 153 145 142 135 134 131 130 124 122 123 123 122 120 121 96
250 253 253 264 282 295 293 139 148 272 296 290 360 322 355 130 100 104 111 72 74 34 317 173 172 198 185 201 131 143 187 197 264 154 150 142 141 136 135 127 122 121 122 121 119 126 118 109 102
238 254 262 271 279 281 335 118 186 227 265 2 310 288 307 103 113 115 105 58 302 114 251 274 194 175 183 166 145 133 135 268 260 156 147 143 139 131 130 125 124 122 121 122 118 124 115 106 99
241 248 257 261 263 289 149 176 208 179 288 283 259 238 165 129 136 169 145 133 190 212 209 239 281 179 189 150 159 156 149 154 263 162 142 138 133 130 131 125 126 123 124 122 122 117 113 108 118
234 247 251 260 277 318 327 291 169 263 244 242 235 215 132 143 186 211 186 192 194 205 176 216 232 210 138 109 98 156 168 156 167 186 139 134 136 134 129 126 118 122 124 117 121 122 122 124 132
238 241 258 271 286 327 290 291 200 242 237 256 309 343 146 176 217 243 248 144 186 178 154 186 210 214 170 147 130 125 132 162 154 164 131 129 112 120 134 126 117 125 121 117 127 135 149 141 145
247 246 250 264 276 285 267 274 286 265 250 252 278 150 291 231 222 234 235 159 156 155 158 132 97 101 96 98 126 152 152 137 136 123 124 130 126 164 136 141 138 135 127 144 152 164 160 165 180
248 248 257 264 262 263 272 251 269 278 286 271 273 197 219 247 235 216 193 158 127 160 143 113 117 111 107 99 97 159 144 145 142 133 155 146 150 164 142 144 147 151 137 147 174 178 153 156 169
259 253 254 261 262 266 264 255 259 258 260 257 249 189 219 232 227 199 161 191 138 136 159 142 143 137 129 110 86 74 105 142 139 133 154 145 171 148 146 155 149 155 161 163 179 177 145 141 139
273 276 274 264 250 258 259 258 251 258 252 245 238 221 217 222 206 205 171 187 143 155 155 162 139 135 132 134 130 113 99 95 137 139 140 145 172 151 152 151 160 163 171 168 189 133 128 139 155
257 255 262 253 253 250 232 255 258 260 237 221 234 238 192 219 199 186 177 171 143 148 162 150 147 165 144 133 128 121 122 113 116 128 131 138 163 169 155 153 175 176 172 172 146 141 151 156 152
255 257 255 252 243 248 222 238 244 237 177 215 221 213 198 206 196 194 173 166 169 146 161 161 139 151 152 137 135 140 134 117 128 129 133 166 194 188 143 171 202 171 173 154 147 157 153 146 145
236 243 247 255 270 234 228 233 260 262 209 199 247 199 190 191 203 192 182 166 170 147 151 152 138 142 135 139 137 138 141 136 149 152 159 181 182 155 140 211 211 135 135 126 134 148 130 144 164
259 267 276 273 238 244 215 226 248 237 244 209 200 217 196 186 193 173 176 152 155 135 146 147 154 150 147 154 147 146 159 161 153 161 170 171 178 184 180 169 151 145 144 140 141 140 149 155 190
245 251 257 274 278 245 270 258 254 252 254 250 245 202 207 191 180 166 164 164 166 154 154 154 164 157 164 159 158 151 155 163 164 155 171 187 188 181 184 173 172 159 156 159 158 145 143 162 173
254 241 251 259 267 271 244 252 260 263 268 256 225 254 230 188 178 166 165 174 170 165 171 163 173 163 167 170 159 152 147 148 159 163 172 188 193 183 194 174 174 185 170 164 161 146 167 169 176
270 253 258 261 260 263 257 256 250 251 232 225 224 222 241 223 181 168 165 175 175 183 165 177 168 179 167 173 168 166 171 165 173 175 180 188 192 194 192 168 164 182 165 164 151 167 175 159 173
266 266 282 269 257 261 258 266 265 256 268 272 198 202 204 205 196 172 167 174 176 175 164 183 159 185 172 182 175 173 173 177 174 174 170 180 189 202 226 185 167 175 176 163 170 172 187 182 162
281 249 262 267 264 249 236 250 244 251 255 239 199 201 205 182 186 170 163 167 177 166 168 173 172 178 181 180 171 185 177 172 180 176 178 176 183 194 196 184 172 170 183 177 182 190 183 193 190
274 221 251 235 231 245 234 243 242 242 260 164 138 217 201 178 172 169 162 169 178 171 170 177 171 189 180 183 183 188 186 185 182 187 191 187 186 193 202 184 185 185 189 192 182 185 190 184 179
289 184 216 210 244 230 227 237 240 210 252 136 246 130 298 136 143 172 174 170 181 174 172 181 175 192 180 186 193 187 190 197 190 189 193 202 200 199 197 196 192 191 191 194 193 195 192 183 194
263 256 214 272 295 281 259 220 167 197 185 191 168 173 229 137 174 186 192 174 179 178 177 182 188 189 187 187 192 203 199 198 189 189 193 198 207 209 207 200 201 198 196 201 199 197 201 202 208
227 264 233 201 242 235 245 273 171 158 170 188 202 177 173 190 119 149 192 173 177 176 175 176 193 198 190 183 193 200 202 202 203 192 199 196 201 205 209 205 206 206 207 204 206 211 213 214 222
217 230 208 224 254 292 245 212 10 279 112 91 21 55 3 74 84 102 340 169 174 172 177 180 189 202 200 184 187 195 201 202 201 209 204 203 198 196 204 206 206 210 209 209 212 215 215 216 222
231 220 210 218 227 254 267 313 321 141 107 61 36 40 17 16 19 53 130 201 172 177 181 185 191 206 204 193 189 195 196 199 203 207 204 201 204 203 204 201 204 208 210 208 211 215 216 221 223